Date String (YYYY-MM-DD hh:mm:ss) UTC,Instrument flags,Ambient pressure (hPa),Sample flow (lpm),Bypass flow (lpm),Sample temperature (°C),Ambient temperature (°C),ASC tube jacket temperature (°C),LED temperature (°C),Box temperature (°C),Sample RH (%),Span deviation,Mass concentration (μg/m³),Mass concentration (μg/m³),Mass concentration (μg/m³)
DateTimeUTC,F1_M11,P_M11,Q1_M11,Q2_M11,T1_M11,T2_M11,T3_M11,T4_M11,T5_M11,U1_M11,ZSPAN_M11,X0_M11,X2_M11,X1_M11
2022-02-27 19:00:00,,0831.7,5.00,0.00,25.7,25.0,00.0,34.5,27.6,08.3,0000.0,0005.12,0003.44,0003.25
2022-02-27 19:01:00,,0831.7,5.00,0.00,25.7,25.0,00.0,34.6,27.6,08.6,0000.0,0005.08,0003.43,0003.25
2022-02-27 19:02:00,,0831.6,5.01,0.00,25.7,25.0,00.0,34.6,27.6,08.7,0000.0,0004.97,0003.42,0003.26
2022-02-27 19:03:00,,0831.7,5.00,0.00,25.8,25.0,00.0,34.6,27.6,08.8,0000.0,0004.70,0003.44,0003.27
2022-02-27 19:04:00,,0831.7,5.01,0.00,25.8,25.0,00.0,34.6,27.7,08.3,0000.0,0004.55,0003.43,0003.27
2022-02-27 19:05:00,,0831.6,5.01,0.00,25.8,25.0,00.0,34.6,27.7,07.8,0000.0,0004.78,0003.46,0003.28
2022-02-27 19:06:00,,0831.6,4.99,0.00,25.8,25.0,00.0,34.6,27.7,08.5,0000.0,0004.95,0003.49,0003.30
2022-02-27 19:07:00,,0831.7,5.00,0.00,25.8,25.0,00.0,34.6,27.7,08.7,0000.0,0005.03,0003.50,0003.32
2022-02-27 19:08:00,,0831.7,5.00,0.00,25.8,25.0,00.0,34.7,27.7,08.6,0000.0,0005.25,0003.53,0003.34
2022-02-27 19:09:00,,0831.7,5.00,0.00,25.8,25.1,00.0,34.7,27.7,08.4,0000.0,0005.31,0003.56,0003.38
2022-02-27 19:10:00,,0831.6,4.99,0.00,25.8,25.1,00.0,34.7,27.7,08.2,0000.0,0005.52,0003.61,0003.40
2022-02-27 19:11:00,,0831.6,5.00,0.00,25.8,25.1,00.0,34.7,27.7,08.7,0000.0,0005.63,0003.63,0003.42
2022-02-27 19:12:00,,0831.6,5.02,0.00,25.9,25.1,00.0,34.7,27.8,08.6,0000.0,0005.55,0003.65,0003.43
2022-02-27 19:13:00,,0831.6,5.00,0.00,25.9,25.1,00.0,34.7,27.8,08.5,0000.0,0005.59,0003.66,0003.45
2022-02-27 19:14:00,,0831.6,4.99,0.00,25.9,25.1,00.0,34.7,27.8,08.6,0000.0,0005.66,0003.67,0003.44
2022-02-27 19:15:00,,0831.6,4.99,0.00,25.9,25.2,00.0,34.7,27.8,09.3,0000.0,0005.61,0003.67,0003.44
2022-02-27 19:16:00,,0831.6,4.99,0.00,25.9,25.2,00.0,34.8,27.8,08.9,0000.0,0005.31,0003.63,0003.43
2022-02-27 19:17:00,,0831.6,5.00,0.00,25.9,25.2,00.0,34.8,27.9,08.6,0000.0,0005.83,0003.63,0003.42
2022-02-27 19:18:00,,0831.6,5.00,0.00,26.0,25.2,00.0,34.8,27.9,08.4,0000.0,0005.81,0003.61,0003.40
2022-02-27 19:19:00,,0831.6,5.00,0.00,26.0,25.2,00.0,34.8,27.9,09.0,0000.0,0005.74,0003.60,0003.38
2022-02-27 19:20:00,,0831.6,5.00,0.00,26.0,25.2,00.0,34.8,27.9,09.2,0000.0,0005.80,0003.59,0003.35
2022-02-27 19:21:00,,0831.6,4.99,0.00,26.0,25.2,00.0,34.9,27.9,08.4,0000.0,0005.68,0003.56,0003.33
2022-02-27 19:22:00,,0831.6,5.01,0.00,26.0,25.3,00.0,34.9,27.9,08.3,0000.0,0005.60,0003.53,0003.32
2022-02-27 19:23:00,,0831.5,5.01,0.00,26.0,25.3,00.0,34.9,27.9,07.9,0000.0,0005.67,0003.53,0003.31
2022-02-27 19:24:00,,0831.6,4.99,0.00,26.0,25.2,00.0,34.9,27.9,07.7,0000.0,0005.80,0003.53,0003.29
2022-02-27 19:25:00,,0831.6,4.99,0.00,26.0,25.2,00.0,34.9,27.9,08.4,0000.0,0005.85,0003.53,0003.28
2022-02-27 19:26:00,,0831.5,5.00,0.00,26.0,25.2,00.0,34.9,27.9,07.6,0000.0,0005.92,0003.53,0003.26
2022-02-27 19:27:00,,0831.5,5.00,0.00,26.0,25.2,00.0,34.9,27.9,07.5,0000.0,0005.94,0003.52,0003.24
2022-02-27 19:28:00,,0831.4,5.01,0.00,26.0,25.2,00.0,34.9,27.9,07.6,0000.0,0005.41,0003.47,0003.20
2022-02-27 19:29:00,,0831.4,4.99,0.00,26.0,25.2,00.0,34.9,27.9,07.9,0000.0,0005.73,0003.45,0003.17
2022-02-27 19:30:00,,0831.4,5.00,0.00,26.0,25.3,00.0,34.9,27.9,07.8,0000.0,0005.51,0003.41,0003.13
2022-02-27 19:31:00,,0831.4,4.99,0.00,26.0,25.3,00.0,34.9,27.9,08.3,0000.0,0005.43,0003.36,0003.09
2022-02-27 19:32:00,,0831.4,5.00,0.00,26.1,25.3,00.0,34.9,27.9,08.4,0000.0,0005.48,0003.34,0003.03
2022-02-27 19:33:00,,0831.4,5.00,0.00,26.1,25.3,00.0,34.9,27.9,08.1,0000.0,0005.47,0003.32,0002.96
2022-02-27 19:34:00,,0831.4,5.00,0.00,26.1,25.3,00.0,35.0,28.0,07.9,0000.0,0005.36,0003.29,0002.91
2022-02-27 19:35:00,,0831.4,5.01,0.00,26.1,25.3,00.0,35.0,28.0,07.8,0000.0,0006.13,0003.24,0002.87
2022-02-27 19:36:00,,0831.4,4.99,0.00,26.1,25.3,00.0,35.0,28.0,08.0,0000.0,0005.97,0003.19,0002.81
2022-02-27 19:37:00,,0831.4,5.00,0.00,26.1,25.4,00.0,35.0,28.0,07.1,0000.0,0005.94,0003.15,0002.76
2022-02-27 19:38:00,,0831.4,5.00,0.00,26.1,25.4,00.0,35.0,28.0,06.9,0000.0,0006.02,0003.13,0002.73
2022-02-27 19:39:00,,0831.4,5.00,0.00,26.2,25.4,00.0,35.0,28.0,06.6,0000.0,0006.01,0003.10,0002.70
2022-02-27 19:40:00,,0831.4,5.00,0.00,26.2,25.4,00.0,35.0,28.0,06.9,0000.0,0005.38,0003.05,0002.65
2022-02-27 19:41:00,,0831.4,5.01,0.00,26.2,25.5,00.0,35.0,28.0,08.1,0000.0,0006.57,0003.14,0002.71
2022-02-27 19:42:00,,0831.3,5.00,0.00,26.2,25.5,00.0,35.0,28.1,07.6,0000.0,0006.57,0003.16,0002.74
2022-02-27 19:43:00,,0831.2,4.99,0.00,26.2,25.5,00.0,35.1,28.1,07.8,0000.0,0006.39,0003.13,0002.74
2022-02-27 19:44:00,,0831.1,4.99,0.00,26.2,25.5,00.0,35.1,28.1,07.8,0000.0,0006.27,0003.13,0002.76
2022-02-27 19:45:00,,0831.1,5.00,0.00,26.3,25.6,00.0,35.1,28.2,07.8,0000.0,0006.29,0003.14,0002.80
2022-02-27 19:46:00,,0831.2,5.00,0.00,26.3,25.6,00.0,35.1,28.2,07.3,0000.0,0005.65,0003.17,0002.82
2022-02-27 19:47:00,,0831.2,5.00,0.00,26.3,25.6,00.0,35.1,28.2,07.2,0000.0,0005.43,0003.17,0002.82
2022-02-27 19:48:00,,0831.2,5.01,0.00,26.3,25.6,00.0,35.1,28.2,07.0,0000.0,0005.27,0003.17,0002.84
2022-02-27 19:49:00,,0831.1,5.00,0.00,26.3,25.6,00.0,35.2,28.2,06.8,0000.0,0005.34,0003.18,0002.85
2022-02-27 19:50:00,,0831.1,4.99,0.00,26.3,25.6,00.0,35.2,28.2,07.1,0000.0,0005.41,0003.19,0002.88
2022-02-27 19:51:00,,0831.1,5.00,0.00,26.3,25.6,00.0,35.2,28.2,06.9,0000.0,0005.36,0003.18,0002.89
2022-02-27 19:52:00,,0831.1,5.01,0.00,26.4,25.6,00.0,35.2,28.2,06.9,0000.0,0004.19,0003.12,0002.82
2022-02-27 19:53:00,,0831.1,5.00,0.00,26.4,25.6,00.0,35.2,28.2,07.1,0000.0,0004.06,0003.04,0002.75
2022-02-27 19:54:00,,0831.2,5.00,0.00,26.4,25.6,00.0,35.2,28.2,06.9,0000.0,0004.13,0003.05,0002.73
2022-02-27 19:55:00,,0831.2,5.00,0.00,26.4,25.6,00.0,35.2,28.3,06.4,0000.0,0004.29,0003.03,0002.69
2022-02-27 19:56:00,,0831.1,5.00,0.00,26.4,25.7,00.0,35.3,28.3,06.9,0000.0,0004.22,0002.93,0002.61
2022-02-27 19:57:00,,0831.2,5.01,0.00,26.4,25.7,00.0,35.3,28.3,07.1,0000.0,0004.03,0002.85,0002.55
2022-02-27 19:58:00,,0831.1,5.01,0.00,26.4,25.7,00.0,35.3,28.3,07.1,0000.0,0004.06,0002.86,0002.55
2022-02-27 19:59:00,,0831.0,5.00,0.00,26.4,25.7,00.0,35.3,28.3,06.3,0000.0,0004.19,0002.86,0002.52
